Погода в Малышево

Россия / Хабаровский край     48°43′51″N   135°36′41″E
темп.,
°C
ветер,
м/с
пор.,
м/с
влажн.,
%
обл.,
%
осадки,
мм/ч
давл.,
гПа
погр.,
м
10 мая, пн
пн1001:00+4ссв101786100 0.0 1006668
04:00+4св91682100 0.0 1007643
07:00+3св9167981 0.0 1009664
10:00+6св9136474 0.0 1010613
13:00+9св81056100 0.0 1010734
16:00+9св795650 0.0 1010768
19:00+8св696523 0.0 1012488
22:00+5ссв488063 0.0 1014174
11 мая, вт
вт1101:00+4ссв597686 0.0 1014252
04:00+4ссв498072 0.0 1015214
07:00+4ссв487591 0.0 1017264
10:00+8ссв4558100 0.0 1017511
13:00+10с235285 0.0 1016823
16:00+10з555899 0.0 1016717
19:00+10з346436 0.0 1016273
22:00+7зсз22745 0.0 101812
12 мая, ср
ср1201:00+7ю227636 0.0 101811
04:00+5юв3381100 0.0 101724
07:00+6ююв3577100 0.0 101791
10:00+10ююв576199 0.0 1014441
13:00+13ю6955100 0.0 1012843
16:00+13ю51060100 0.0 1009768
19:00+9ююв4893100 2.3 1009333
22:00+9ю7138539 6.0 1008426
13 мая, чт
чт1301:00+9ю81387100 0.1 1007467
04:00+9ююз91588100 0.3 1006479
07:00+8ююз81388100 0.1 1006423
10:00+8зюз7118657 0.4 1007473
13:00+12з812637 0.0 10061007
16:00+14з813515 0.0 10061345
19:00+13з712511 0.0 1006333
22:00+10зюз335991 0.0 100811
14 мая, пт
пт1401:00+9ю2261100 0.0 100910
04:00+8ю3580100 0.0 100952
07:00+9ю2483100 0.0 100988
10:00+13ююз456973 0.0 1008352
13:00+17ююз575485 0.0 1007893
16:00+18ю694467 0.0 10031256
19:00+16ююз4655100 0.0 1002119
22:00+15ююв61057100 0.0 999186